Powrót do katalogu

STARLINK-3692

AktywnyŁącznośćVLEO
NORAD 51958·PAYLOAD·🇺🇸 United States

Wystrzelony Mar 9, 2022 z Cape Canaveral Space Force Station

Loading…

Następne Przeloty (najbliższe 24 godziny)

TLE

ŚwieżeSource: CelesTrak SupGP

Epoka: Sep 14, 2026, 19:57 UTC

1 51958C 22025C   26257.83173611  .00040193  00000+0  12925-2 0  2575
2 51958  53.1587 213.3325 0001313  93.8722 300.8309 15.31681900    15

Śledź STARLINK-3692 w czasie rzeczywistym z AllMySat

Download on the App Store